sat.trackr.live / text

‹ back to catalog

FLOCK 4G-6

NORAD 62660 · 2025-009BD

PAYLOAD ACTIVE UNKNOWN

§ Identity

Operator
Country
US
Launch date
2025-01-14
Launch site
AFWTR
Launch vehicle
Mass (kg)
RCS (m²)

Purposes: earth_obs

External: N2YO · Heavens-Above · Gunter

§ Orbital elements

Epoch: 2026-05-25T04:22:28.281792Z

Period
94.18 min
Inclination
97.3942°
Eccentricity
0.0004546
Mean motion
15.29039827 rev/d
Perigee alt
475.6 km
Apogee alt
481.8 km
Semi-major
6,856.8 km
B*
3.3368e-4
RAAN
226.7318°
Arg perigee
71.2529°
Mean anomaly
288.9204°
Rev number
13,298

§ Raw data

FLOCK 4G-61 62660U 25009BD  26145.18227178  .00009338  00000+0  33368-3 0  99982 62660  97.3942 226.7318 0004546  71.2529 288.9204 15.29039827132982

JSON: /api/v1/satellites/62660 · /tle

For live sub-satellite position, see the globe view (requires WebGL).

§ Visibility from observer

Set your observer location to see the next 7 days of passes ≥ 10°. The values pass through the URL so the page stays shareable.

No JS? Fill the form by hand. The geolocation button needs JavaScript.